[[{"header":{"parameterUnit":"m.s-1","parameterCategory":1,"la1":30.2991,"la2":30.254,"lo1":-89.0895,"lo2":-89.0444,"dy":0.0017,"dx":0.0017,"nx":28,"ny":28,"refTime":"2024-08-08T09:00:00:Z","depth":0,"parameterNumber":2,"parameterNumberName":"U-component_of_WINDS"},"data":[0,0,0,0,0,0,0,0,0,0,0,0,0,0,0,0,0,0,0,0,0,0,0,0,0,0,0,0,0,0,0,0,0,0,0,0,0,0,0,0,0,0,0,0,0,0,0,0,0,0,0,0,0,0,0,0,0,0,0.9161,0.9164,0,0.9448,0.9452,0.9455,0.9524,0.9522,0.952,0.9518,0.9815,0.9825,0.9834,0,0,0,0,0,0,0,0,0,0,0,0,0,0.8677,0.8686,0.9161,0.9165,0.9168,0.9448,0.9452,0.9456,0.9524,0.9522,0.952,0.9517,0.9812,0.9823,0.9835,0,0,0,0,0,0,0,0,0,0,0,0,0,0.8918,0.8688,0.9161,0.9236,0.9246,0.9447,0.9452,0.9457,0.9525,0.9522,0.9519,0.9516,0.9808,0.9822,0.9837,0.9984,0,0,0.9881,0.9887,0,0,0,0,0,0,0,0,0.8904,0.8936,0.9222,0.9231,0.9243,0.9447,0.939,0.9633,0.9526,0.9419,0.9518,0.9515,0.9695,0.9719,0.9779,0.9998,1.001,0.9882,0.9891,0.9897,0.9901,0,0,0,0,0,0,0,0.8887,0.8924,0.9275,0.9226,0.9239,0.9257,0.9288,0.9436,0.957,0.9428,0.9434,0.9467,0.97,0.9765,0.9787,1.0015,0.9882,0.9895,0.9904,0.9909,1.0372,1.0375,0,0,0,0,0,0,0.8857,0.8909,0.9266,0.9283,0.9063,0.9268,0.9303,0.9385,0.9568,0.9594,0.9469,0.9469,0.9742,0.977,0.9797,0.9985,0.9897,0.9911,0.9919,1.0368,1.0372,1.0376,0,0,0,0,0,0,0.8846,0.8888,0.9254,0.9098,0.9146,0.928,0.9371,0.9392,0.9456,0.9599,0.9624,0.951,0.974,0.9777,0.9937,0.9996,0.9917,0.9931,1.0364,1.0369,1.0374,1.0358,0,0,0,0,0,0,0.8832,0.8884,0.894,0.9099,0.9154,0.9388,0.9374,0.9399,0.9481,0.9484,0.9644,0.9668,0.9741,0.9915,0.9952,1.0014,0.9942,1.0359,1.0366,1.0373,1.0354,1.0363,1.0369,0,0,0,0,0,0.8815,0.8924,0.8943,0.8985,0.9227,0.9391,0.9423,0.9504,0.9485,0.9544,0.9636,0.9663,0.9982,0.9931,0.9973,1.0041,1.0356,1.0364,1.0372,1.0351,1.0361,1.0369,0,0,0,0,0,0,0.877,0.8946,0.8969,0.9132,0.9246,0.9403,0.9479,0.9511,0.9634,0.9632,0.9727,0.9763,0.9918,0.9995,0.9935,1.0194,1.0169,1.0186,1.0139,1.015,1.0157,1.0137,0.9954,0,0,0,0,0,0.8778,0.8896,0.9044,0.9175,0.923,0.9345,0.9419,0.9472,0.9594,0.9643,0.9747,0.9865,0.9993,1.0075,1.02,1.0365,1.0403,1.0432,1.0439,1.0445,1.0459,1.0556,1.0572,1.0403,1.0403,1.0402,0,0,0.8799,0.891,0.8978,0.9168,0.9263,0.9385,0.9385,0.9513,0.9605,0.9663,0.9822,0.9901,1.004,1.0204,1.0282,1.0273,1.0514,1.0455,1.0458,1.0471,1.0566,1.0582,1.0596,1.0408,1.0407,1.0406,0,0,0.8898,0.8992,0.9113,0.9208,0.935,0.9426,0.9454,0.9607,0.9662,0.9822,0.9869,0.998,1.0197,1.0295,1.0373,1.051,1.0541,1.0548,1.0589,1.0682,1.0695,1.0707,1.076,1.0777,1.0561,1.0561,1.0561,0,0.8906,0.909,0.9171,0.9298,0.9382,0.9438,0.9563,0.9651,0.9827,0.9884,0.9871,1.0147,1.0244,1.0433,1.0467,1.0527,1.0565,1.0532,1.0686,1.07,1.0712,1.0764,1.0783,1.0561,1.0561,1.0561,1.0561,0,0.9094,0.9221,0.9301,0.947,0.9562,0.9687,0.9789,0.9873,0.9917,0.9994,1.0158,1.0276,1.0428,1.0476,1.052,1.0673,1.0663,1.0667,1.0645,1.0727,1.0777,1.0797,1.0562,1.0562,1.0562,1.0561,0,0,0.9175,0.9388,0.9416,0.9495,0.9657,0.9757,0.9885,1.0033,1.0104,1.0223,1.0336,1.0518,1.0523,1.0611,1.0667,1.0748,1.0853,1.0742,1.0747,1.0762,1.1033,1.1032,1.1053,1.0873,1.0877,1.088,1.1022,0,0.9298,0.9528,0.9605,0.9797,0.9917,0.9973,1.0085,1.0197,1.0272,1.0386,1.0469,1.0599,1.0594,1.0648,1.073,1.0823,1.091,1.0813,1.0981,1.0986,1.0948,1.1079,1.1078,1.1207,1.1042,1.1045,1.1048,0,0.9472,0.9595,0.9798,0.9947,1.0001,1.01,1.0242,1.0349,1.0478,1.0528,1.0627,1.0676,1.0814,1.0781,1.0973,1.0906,1.0979,1.1035,1.1042,1.1064,1.1025,1.1108,1.1249,1.127,1.1079,1.1076,1.1074,0,0.9516,0.9731,0.9882,0.9947,1.0123,1.0192,1.0269,1.0395,1.048,1.0604,1.0661,1.0799,1.0876,1.0983,1.1069,1.1036,1.1256,1.1228,1.1303,1.1301,1.135,1.1347,1.1509,1.139,1.1389,1.1389,1.1389,0,0.9647,0.9771,0.9905,0.9998,1.0138,1.0226,1.0363,1.0443,1.0555,1.0666,1.0721,1.0824,1.093,1.1048,1.1116,1.1267,1.13,1.1346,1.1364,1.1344,1.1339,1.1396,1.1391,1.1394,1.1393,1.1392,1.1391,0,0.9722,0.9815,0.9984,1.0137,1.0179,1.0276,1.0408,1.0501,1.0578,1.0718,1.0756,1.0878,1.1019,1.1115,1.1295,1.1341,1.1507,1.152,1.1464,1.1473,1.1544,1.1537,1.1752,1.1786,1.164,1.1641,1.1642,0,0.9801,0.9898,1.0061,1.0139,1.0216,1.0341,1.0428,1.0517,1.0606,1.0761,1.0836,1.098,1.1102,1.1325,1.143,1.1569,1.159,1.1655,1.1611,1.1589,1.1596,1.1591,1.1602,1.1663,1.1664,1.1665,1.1666,0,0.9934,0.9976,1.0098,1.0238,1.0339,1.0453,1.0568,1.0629,1.0739,1.0835,1.098,1.1074,1.1259,1.1403,1.1552,1.1633,1.167,1.1678,1.1704,1.1687,1.1652,1.1676,1.1487,1.1674,1.1673,1.1673,1.1672,1.1672,1.0017,1.0107,1.0236,1.0371,1.0467,1.0573,1.0669,1.0758,1.088,1.1038,1.1083,1.1235,1.1363,1.1567,1.165,1.1771,1.1765,1.1801,1.1811,1.1819,1.1822,1.1628,1.1797,1.1797,1.1797,1.1797,1.1797,0,1.0157,1.0243,1.0366,1.0525,1.0631,1.0653,1.0782,1.087,1.1003,1.1119,1.1237,1.1405,1.1545,1.166,1.1806,1.1881,1.1901,1.1916,1.1914,1.1933,1.1816,1.1782,1.1897,1.1897,1.1897,1.1897,1.1897,1.1897,1.0242,1.0396,1.0453,1.0656,1.0741,1.089,1.0962,1.1061,1.1154,1.1339,1.1456,1.153,1.1647,1.1801,1.1931,1.1962,1.2014,1.2026,1.2061,1.1951,1.194,1.193,1.1898,1.2036,1.2036,1.2168,1.2169,1.217]},{"header":{"parameterUnit":"m.s-1","parameterCategory":1,"la1":30.2991,"la2":30.254,"lo1":-89.0895,"lo2":-89.0444,"dy":0.0017,"dx":0.0017,"nx":28,"ny":28,"refTime":"2024-08-08T09:00:00:Z","depth":0,"parameterNumber":3,"parameterNumberName":"V-component_of_WINDS"},"data":[0,0,0,0,0,0,0,0,0,0,0,0,0,0,0,0,0,0,0,0,0,0,0,0,0,0,0,0,0,0,0,0,0,0,0,0,0,0,0,0,0,0,0,0,0,0,0,0,0,0,0,0,0,0,0,0,0,0,0.2465,0.2468,0,0.2682,0.2684,0.2687,0.2663,0.2659,0.2656,0.2653,0.2875,0.2884,0.2893,0,0,0,0,0,0,0,0,0,0,0,0,0,0.2032,0.204,0.2465,0.2468,0.2471,0.2681,0.2684,0.2687,0.2663,0.2659,0.2655,0.2651,0.2872,0.2883,0.2894,0,0,0,0,0,0,0,0,0,0,0,0,0,0.2232,0.2043,0.2465,0.2484,0.2488,0.2681,0.2685,0.2688,0.2664,0.2659,0.2654,0.2649,0.2869,0.2882,0.2896,0.3084,0,0,0.2937,0.2943,0,0,0,0,0,0,0,0,0.222,0.2248,0.2478,0.2483,0.2488,0.264,0.2613,0.2821,0.2666,0.2597,0.2653,0.2647,0.2801,0.282,0.2872,0.3094,0.3103,0.2939,0.2947,0.2953,0.2957,0,0,0,0,0,0,0,0.2207,0.2238,0.2551,0.2482,0.2488,0.2482,0.2505,0.2653,0.2726,0.2603,0.2602,0.2628,0.2803,0.2859,0.2877,0.3107,0.2938,0.295,0.2959,0.2964,0.3497,0.3502,0,0,0,0,0,0,0.2188,0.2227,0.2544,0.2557,0.2339,0.2494,0.252,0.2596,0.2724,0.2738,0.2632,0.2626,0.2838,0.2861,0.2885,0.3117,0.2953,0.2966,0.2973,0.3491,0.3498,0.3504,0,0,0,0,0,0,0.2179,0.2216,0.2535,0.2392,0.2432,0.2507,0.2594,0.2603,0.266,0.2746,0.2759,0.2676,0.2835,0.2866,0.3035,0.3124,0.2972,0.2984,0.3484,0.3493,0.3501,0.3579,0,0,0,0,0,0,0.2166,0.2213,0.2285,0.2394,0.244,0.2682,0.2599,0.2611,0.2683,0.2677,0.2791,0.2804,0.2833,0.3015,0.3049,0.314,0.2995,0.3476,0.3488,0.3498,0.3569,0.359,0.3607,0,0,0,0,0,0.2151,0.2298,0.2289,0.2327,0.2531,0.2687,0.2713,0.2743,0.269,0.2764,0.2819,0.2801,0.3108,0.3032,0.307,0.3167,0.3471,0.3485,0.3498,0.3561,0.3586,0.3607,0,0,0,0,0,0,0.2198,0.2312,0.2304,0.249,0.2579,0.2682,0.2776,0.2768,0.2874,0.2864,0.2897,0.2923,0.3095,0.3147,0.3061,0.3357,0.3282,0.3304,0.3317,0.3342,0.336,0.3346,0.3006,0,0,0,0,0,0.2229,0.2346,0.244,0.2595,0.264,0.27,0.2769,0.2785,0.2878,0.2916,0.2983,0.3075,0.3193,0.3269,0.3382,0.3575,0.3601,0.366,0.3679,0.3694,0.3714,0.3823,0.3852,0.3548,0.3548,0.3548,0,0,0.2297,0.2374,0.2445,0.2606,0.2677,0.2798,0.2732,0.2862,0.2953,0.2935,0.3101,0.3153,0.3258,0.3441,0.3525,0.349,0.3803,0.3712,0.3723,0.3735,0.384,0.3869,0.3894,0.3557,0.3556,0.3554,0,0,0.2482,0.255,0.2689,0.2762,0.287,0.2909,0.2942,0.3048,0.3082,0.3248,0.3239,0.3346,0.3547,0.3623,0.3688,0.3903,0.3891,0.3938,0.4039,0.4145,0.4169,0.4191,0.4271,0.4299,0.3956,0.3956,0.3956,0,0.2552,0.2734,0.2761,0.2894,0.2967,0.2956,0.3098,0.3166,0.3306,0.3356,0.3314,0.3568,0.3637,0.3839,0.3892,0.3943,0.3984,0.3927,0.4163,0.4185,0.4206,0.4282,0.4312,0.3962,0.3961,0.396,0.396,0,0.2817,0.2943,0.3042,0.3178,0.3261,0.3397,0.3447,0.3527,0.3535,0.3579,0.3749,0.3832,0.3962,0.401,0.4019,0.4215,0.4191,0.4155,0.4082,0.4239,0.4313,0.4342,0.3969,0.3967,0.3966,0.3964,0,0,0.304,0.319,0.3226,0.3289,0.3407,0.3506,0.3642,0.377,0.384,0.3936,0.4053,0.4223,0.4192,0.4265,0.4282,0.4375,0.4544,0.4329,0.4332,0.437,0.4769,0.4798,0.4831,0.4535,0.4541,0.4545,0.4761,0,0.324,0.3482,0.3511,0.3727,0.3846,0.3837,0.3956,0.4042,0.4087,0.4194,0.4242,0.4365,0.4312,0.4357,0.4448,0.4504,0.4625,0.4488,0.4647,0.4652,0.4625,0.4869,0.4899,0.5099,0.479,0.4794,0.4798,0,0.3507,0.3612,0.384,0.3945,0.3995,0.4102,0.4223,0.4325,0.4422,0.4448,0.4531,0.4536,0.4678,0.4595,0.4793,0.4699,0.4765,0.4802,0.481,0.483,0.4738,0.4898,0.5163,0.5195,0.4842,0.4839,0.4836,0,0.3652,0.385,0.4013,0.4066,0.4191,0.4267,0.4322,0.4415,0.449,0.4595,0.4645,0.4764,0.4831,0.4923,0.4961,0.4897,0.5158,0.5078,0.5185,0.5185,0.5244,0.5241,0.5528,0.5279,0.5279,0.5278,0.5278,0,0.3875,0.4016,0.408,0.4181,0.4339,0.437,0.4526,0.4578,0.4661,0.4772,0.477,0.4874,0.4916,0.5027,0.5057,0.5218,0.5246,0.5273,0.528,0.5276,0.5273,0.5323,0.5311,0.5286,0.5285,0.5283,0.5282,0,0.4066,0.4114,0.4292,0.4395,0.4425,0.4537,0.4626,0.4724,0.4766,0.4907,0.4942,0.501,0.5141,0.5186,0.5345,0.5365,0.5553,0.5546,0.5521,0.5524,0.563,0.5621,0.5963,0.6011,0.5727,0.5729,0.5731,0,0.4207,0.4316,0.4432,0.4507,0.4565,0.4685,0.4763,0.4797,0.4878,0.4998,0.5082,0.5212,0.5319,0.5529,0.5592,0.5714,0.5713,0.5823,0.5731,0.5724,0.5719,0.5714,0.5727,0.5842,0.5845,0.5848,0.5849,0,0.4455,0.4474,0.4586,0.4708,0.48,0.4897,0.4991,0.5052,0.5101,0.5192,0.5326,0.5409,0.5571,0.5702,0.5826,0.5883,0.5877,0.5877,0.591,0.5909,0.5892,0.5907,0.5573,0.5871,0.5869,0.5867,0.5866,0.5865,0.4629,0.4726,0.4824,0.4949,0.5023,0.5111,0.521,0.5265,0.5377,0.5514,0.5526,0.5672,0.5768,0.5934,0.5997,0.6112,0.6081,0.6127,0.6139,0.6151,0.6162,0.5869,0.6134,0.6133,0.6133,0.6133,0.6132,0,0.488,0.4942,0.5057,0.519,0.5289,0.5271,0.5375,0.5459,0.5588,0.5678,0.5783,0.5938,0.6065,0.6137,0.6264,0.6342,0.6342,0.6375,0.6372,0.6386,0.618,0.6141,0.6373,0.6373,0.6373,0.6373,0.6373,0.6373,0.5023,0.5188,0.5218,0.542,0.5481,0.5625,0.5686,0.5768,0.584,0.6014,0.612,0.6166,0.625,0.6383,0.6498,0.6516,0.6565,0.6601,0.6617,0.6424,0.64,0.6376,0.6341,0.661,0.6611,0.6814,0.6816,0.6817]}]]